WMT469 EDDN-LRSB

Flight info

Callsign WMT469
Flight time 1h 25m
Altitude 37000
Route RODIS1G/28 RODIS L604 LAMSI DCT TAGAS DCT PESAT DCT TEKNO DCT ZOLKU DCT GILEP DCT BUDOP DCT IBINU
Aircraft A320/M-SDE3FGHIRWY/LB1

Departure

Time 2026-04-27 11:58
Airport Nuremberg Airport (EDDN)

Arrival

Time 2026-04-27 13:24
Airport Sibiu International Airport (LRSB)
Time Latitude Longitude Altitude Speed Heading
2026-04-27 11:39 49.49535 11.07585 1053 ft 0 kts 188°
2026-04-27 11:46 49.49539 11.07585 1053 ft 3 kts 188°
2026-04-27 11:47 49.49564 11.07591 1026 ft 3 kts 188°
2026-04-27 11:47 49.49586 11.07594 1026 ft 4 kts 163°
2026-04-27 11:47 49.49604 11.07574 1024 ft 4 kts 107°
2026-04-27 11:47 49.49608 11.07538 1025 ft 2 kts 98°
2026-04-27 11:48 49.49609 11.07536 1025 ft 0 kts 98°
2026-04-27 11:52 49.49609 11.07537 1025 ft 1 kts 98°
2026-04-27 11:53 49.49605 11.07577 1023 ft 8 kts 98°
2026-04-27 11:53 49.49593 11.07699 1023 ft 13 kts 98°
2026-04-27 11:53 49.49579 11.07844 1027 ft 14 kts 98°
2026-04-27 11:53 49.49564 11.08004 1027 ft 16 kts 98°
2026-04-27 11:54 49.49546 11.08174 1024 ft 16 kts 99°
2026-04-27 11:54 49.49538 11.08317 1029 ft 10 kts 69°
2026-04-27 11:54 49.49588 11.08355 1032 ft 7 kts 14°
2026-04-27 11:54 49.49615 11.08412 1034 ft 8 kts 79°
2026-04-27 11:55 49.49606 11.08525 1035 ft 12 kts 97°
2026-04-27 11:55 49.49593 11.08666 1036 ft 17 kts 98°
2026-04-27 11:55 49.49573 11.08861 1038 ft 19 kts 99°
2026-04-27 11:55 49.49552 11.09067 1040 ft 20 kts 99°
2026-04-27 11:56 49.49531 11.09272 1044 ft 18 kts 98°
2026-04-27 11:56 49.49560 11.09427 1047 ft 14 kts 52°
2026-04-27 11:56 49.49619 11.09539 1051 ft 13 kts 50°
2026-04-27 11:56 49.49693 11.09541 1052 ft 12 kts 315°
2026-04-27 11:57 49.49706 11.09476 1051 ft 0 kts 279°
2026-04-27 11:57 49.49709 11.09443 1051 ft 16 kts 279°
2026-04-27 11:58 49.49766 11.08873 1041 ft 88 kts 279°
2026-04-27 11:58 49.49888 11.07640 1027 ft 142 kts 278°
2026-04-27 11:58 49.50034 11.06023 1410 ft 153 kts 279°
2026-04-27 11:58 49.50177 11.04396 2029 ft 154 kts 279°
2026-04-27 11:59 49.50338 11.02735 2499 ft 163 kts 279°
2026-04-27 11:59 49.50522 11.00888 2703 ft 186 kts 279°
2026-04-27 11:59 49.50735 10.98794 2928 ft 210 kts 279°
2026-04-27 11:59 49.50972 10.96442 3228 ft 234 kts 279°
2026-04-27 12:00 49.51468 10.93944 3625 ft 255 kts 305°
2026-04-27 12:00 49.52855 10.92239 4310 ft 262 kts 341°
2026-04-27 12:00 49.54658 10.91754 5176 ft 265 kts 359°
2026-04-27 12:00 49.56493 10.92052 6078 ft 268 kts 17°
2026-04-27 12:01 49.58125 10.93429 6894 ft 272 kts 42°
2026-04-27 12:01 49.59223 10.95805 7685 ft 277 kts 68°
2026-04-27 12:01 49.59534 10.98745 8474 ft 284 kts 94°
2026-04-27 12:01 49.59210 11.01725 9262 ft 288 kts 99°
2026-04-27 12:02 49.58830 11.04772 10065 ft 291 kts 99°
2026-04-27 12:02 49.58442 11.07886 10596 ft 303 kts 99°
2026-04-27 12:02 49.58034 11.11192 10764 ft 326 kts 99°
2026-04-27 12:02 49.57602 11.14701 11151 ft 339 kts 99°
2026-04-27 12:03 49.57160 11.18298 11759 ft 344 kts 100°
2026-04-27 12:03 49.56710 11.21954 12401 ft 349 kts 100°
2026-04-27 12:03 49.56253 11.25652 13048 ft 354 kts 100°
2026-04-27 12:03 49.55790 11.29398 13706 ft 358 kts 100°
2026-04-27 12:04 49.55318 11.33187 14304 ft 362 kts 100°
2026-04-27 12:04 49.54839 11.37015 14878 ft 366 kts 100°
2026-04-27 12:04 49.54353 11.40887 15448 ft 370 kts 100°
2026-04-27 12:04 49.53860 11.44792 15998 ft 373 kts 100°
2026-04-27 12:05 49.53364 11.48740 16555 ft 377 kts 100°
2026-04-27 12:05 49.52863 11.52718 17115 ft 381 kts 100°
2026-04-27 12:05 49.52352 11.56751 17683 ft 385 kts 100°
2026-04-27 12:05 49.51835 11.60815 18253 ft 389 kts 100°
2026-04-27 12:06 49.51313 11.64922 18767 ft 393 kts 100°
2026-04-27 12:06 49.50786 11.69064 19274 ft 396 kts 100°
2026-04-27 12:06 49.50250 11.73242 19776 ft 401 kts 100°
2026-04-27 12:06 49.49707 11.77473 20282 ft 405 kts 100°
2026-04-27 12:07 49.49160 11.81738 20789 ft 409 kts 100°
2026-04-27 12:07 49.48604 11.86042 21274 ft 412 kts 100°
2026-04-27 12:07 49.48045 11.90336 21738 ft 416 kts 101°
2026-04-27 12:07 49.47442 11.94711 22214 ft 420 kts 104°
2026-04-27 12:08 49.46525 11.98988 22676 ft 424 kts 109°
2026-04-27 12:08 49.45531 12.03276 23152 ft 427 kts 109°
2026-04-27 12:08 49.44526 12.07590 23612 ft 431 kts 109°
2026-04-27 12:08 49.43508 12.11942 24031 ft 434 kts 109°
2026-04-27 12:09 49.42482 12.16326 24412 ft 438 kts 109°
2026-04-27 12:09 49.41452 12.20741 24797 ft 441 kts 109°
2026-04-27 12:09 49.40414 12.25190 25185 ft 443 kts 109°
2026-04-27 12:09 49.39366 12.29658 25566 ft 446 kts 109°
2026-04-27 12:10 49.38312 12.34145 25944 ft 448 kts 109°
2026-04-27 12:10 49.37248 12.38655 26321 ft 450 kts 109°
2026-04-27 12:10 49.36175 12.43183 26687 ft 453 kts 109°
2026-04-27 12:10 49.35098 12.47727 27048 ft 455 kts 110°
2026-04-27 12:11 49.33784 12.52154 27392 ft 458 kts 119°
2026-04-27 12:11 49.32029 12.56238 27745 ft 460 kts 129°
2026-04-27 12:11 49.29890 12.59888 28072 ft 462 kts 136°
2026-04-27 12:11 49.27651 12.63356 28388 ft 464 kts 135°
2026-04-27 12:12 49.25380 12.66875 28742 ft 466 kts 135°
2026-04-27 12:12 49.23100 12.70408 29090 ft 468 kts 135°
2026-04-27 12:12 49.20803 12.73958 29422 ft 470 kts 135°
2026-04-27 12:12 49.18497 12.77523 29762 ft 472 kts 135°
2026-04-27 12:13 49.16184 12.81103 30075 ft 475 kts 135°
2026-04-27 12:13 49.13857 12.84699 30385 ft 477 kts 135°
2026-04-27 12:13 49.11525 12.88293 30771 ft 476 kts 135°
2026-04-27 12:13 49.09197 12.91875 31170 ft 475 kts 135°
2026-04-27 12:14 49.06870 12.95450 31562 ft 475 kts 135°
2026-04-27 12:14 49.04546 12.99014 31952 ft 474 kts 135°
2026-04-27 12:14 49.02217 13.02580 32351 ft 474 kts 135°
2026-04-27 12:14 48.99894 13.06128 32729 ft 473 kts 135°
2026-04-27 12:15 48.97571 13.09669 33142 ft 472 kts 135°
2026-04-27 12:15 48.95250 13.13201 33539 ft 471 kts 135°
2026-04-27 12:15 48.92934 13.16726 33943 ft 471 kts 135°
2026-04-27 12:15 48.90618 13.20244 34308 ft 470 kts 135°
2026-04-27 12:16 48.88303 13.23760 34630 ft 470 kts 135°
2026-04-27 12:16 48.85990 13.27270 34919 ft 470 kts 135°
2026-04-27 12:16 48.83667 13.30788 35151 ft 471 kts 135°
2026-04-27 12:17 48.79033 13.37779 35208 ft 474 kts 135°
2026-04-27 12:17 48.74350 13.44821 35206 ft 474 kts 135°
2026-04-27 12:18 48.69666 13.51845 35206 ft 473 kts 135°
2026-04-27 12:18 48.65389 13.59369 35220 ft 472 kts 121°
2026-04-27 12:19 48.62528 13.68246 35202 ft 470 kts 111°
2026-04-27 12:19 48.60403 13.75797 35209 ft 470 kts 111°
2026-04-27 12:20 48.57396 13.86356 35214 ft 471 kts 111°
2026-04-27 12:20 48.54794 13.95434 35219 ft 471 kts 111°
2026-04-27 12:21 48.52610 14.03032 35232 ft 471 kts 111°
2026-04-27 12:21 48.50005 14.12102 35232 ft 471 kts 111°
2026-04-27 12:22 48.47393 14.21159 35229 ft 471 kts 111°
2026-04-27 12:22 48.44775 14.30201 35232 ft 471 kts 111°
2026-04-27 12:23 48.42150 14.39241 35246 ft 471 kts 111°
2026-04-27 12:23 48.39529 14.48215 35234 ft 472 kts 111°
2026-04-27 12:24 48.36873 14.57256 35216 ft 472 kts 112°
2026-04-27 12:24 48.34217 14.66274 35229 ft 472 kts 112°
2026-04-27 12:25 48.31553 14.75278 35237 ft 471 kts 111°
2026-04-27 12:25 48.28885 14.84283 35232 ft 471 kts 112°
2026-04-27 12:26 48.26219 14.93270 35232 ft 471 kts 112°
2026-04-27 12:26 48.23538 15.02250 35229 ft 472 kts 112°
2026-04-27 12:27 48.20841 15.11227 35228 ft 472 kts 112°
2026-04-27 12:27 48.18163 15.20132 35240 ft 472 kts 112°
2026-04-27 12:28 48.15462 15.29096 35232 ft 472 kts 112°
2026-04-27 12:28 48.12754 15.38050 35225 ft 472 kts 112°
2026-04-27 12:29 48.10031 15.46998 35231 ft 472 kts 112°
2026-04-27 12:29 48.07303 15.55941 35237 ft 473 kts 112°
2026-04-27 12:30 48.04575 15.64888 35230 ft 472 kts 109°
2026-04-27 12:30 48.02417 15.74114 35222 ft 470 kts 105°
2026-04-27 12:31 48.00297 15.83361 35229 ft 470 kts 106°
2026-04-27 12:31 47.98161 15.92609 35240 ft 471 kts 105°
2026-04-27 12:32 47.96038 16.01810 35228 ft 472 kts 105°
2026-04-27 12:32 47.93902 16.11052 35218 ft 472 kts 106°
2026-04-27 12:33 47.91746 16.20295 35232 ft 471 kts 106°
2026-04-27 12:33 47.89586 16.29515 35244 ft 471 kts 106°
2026-04-27 12:34 47.87426 16.38715 35239 ft 471 kts 106°
2026-04-27 12:34 47.85258 16.47912 35227 ft 471 kts 106°
2026-04-27 12:35 47.83078 16.57097 35222 ft 470 kts 106°
2026-04-27 12:35 47.80892 16.66279 35223 ft 470 kts 106°
2026-04-27 12:36 47.78700 16.75445 35226 ft 471 kts 106°
2026-04-27 12:36 47.76501 16.84619 35228 ft 471 kts 106°
2026-04-27 12:37 47.74285 16.93789 35231 ft 471 kts 106°
2026-04-27 12:37 47.72064 17.02939 35231 ft 471 kts 106°
2026-04-27 12:38 47.69829 17.12011 35244 ft 471 kts 107°
2026-04-27 12:38 47.67495 17.21098 35244 ft 471 kts 108°
2026-04-27 12:39 47.65144 17.30158 35236 ft 471 kts 108°
2026-04-27 12:39 47.62799 17.39219 35236 ft 470 kts 107°
2026-04-27 12:40 47.61121 17.48526 35261 ft 467 kts 99°
2026-04-27 12:40 47.59584 17.57869 35262 ft 467 kts 100°
2026-04-27 12:41 47.58017 17.67215 35263 ft 467 kts 100°
2026-04-27 12:41 47.56440 17.76551 35263 ft 467 kts 100°
2026-04-27 12:42 47.54876 17.85890 35258 ft 467 kts 100°
2026-04-27 12:42 47.53373 17.95237 35254 ft 467 kts 99°
2026-04-27 12:43 47.51881 18.04520 35253 ft 467 kts 100°
2026-04-27 12:43 47.50343 18.13843 35250 ft 466 kts 100°
2026-04-27 12:44 47.48792 18.23155 35268 ft 466 kts 100°
2026-04-27 12:44 47.47022 18.32411 35256 ft 468 kts 105°
2026-04-27 12:45 47.44886 18.41514 35248 ft 469 kts 107°
2026-04-27 12:45 47.42674 18.50585 35247 ft 469 kts 107°
2026-04-27 12:46 47.40533 18.59678 35250 ft 469 kts 106°
2026-04-27 12:46 47.38448 18.68723 35253 ft 468 kts 106°
2026-04-27 12:47 47.36348 18.77825 35249 ft 468 kts 106°
2026-04-27 12:47 47.34228 18.86918 35251 ft 468 kts 106°
2026-04-27 12:48 47.32091 18.95980 35253 ft 468 kts 107°
2026-04-27 12:48 47.29935 19.05046 35263 ft 468 kts 107°
2026-04-27 12:49 47.27800 19.14039 35257 ft 468 kts 107°
2026-04-27 12:49 47.25655 19.23084 35256 ft 468 kts 107°
2026-04-27 12:50 47.23501 19.32125 35256 ft 468 kts 107°
2026-04-27 12:50 47.21331 19.41150 35259 ft 468 kts 108°
2026-04-27 12:51 47.19141 19.50174 35253 ft 468 kts 108°
2026-04-27 12:51 47.16950 19.59197 35256 ft 468 kts 108°
2026-04-27 12:52 47.14774 19.68166 35261 ft 468 kts 108°
2026-04-27 12:52 47.12582 19.77184 35265 ft 468 kts 108°
2026-04-27 12:53 47.09277 19.90675 35264 ft 468 kts 108°
2026-04-27 12:53 47.07065 19.99667 35263 ft 468 kts 108°
2026-04-27 12:54 47.04837 20.08643 35258 ft 469 kts 109°
2026-04-27 12:54 47.02600 20.17622 35263 ft 469 kts 109°
2026-04-27 12:55 47.00360 20.26595 35257 ft 469 kts 109°
2026-04-27 12:55 46.98116 20.35556 35255 ft 469 kts 109°
2026-04-27 12:56 46.95883 20.44459 35255 ft 469 kts 109°
2026-04-27 12:56 46.93625 20.53400 35254 ft 469 kts 109°
2026-04-27 12:57 46.91357 20.62350 35255 ft 468 kts 109°
2026-04-27 12:57 46.89084 20.71278 35256 ft 468 kts 109°
2026-04-27 12:58 46.86803 20.80193 35248 ft 468 kts 109°
2026-04-27 12:58 46.84517 20.89110 35263 ft 468 kts 109°
2026-04-27 12:59 46.82226 20.98018 35250 ft 468 kts 110°
2026-04-27 12:59 46.79922 21.06918 35245 ft 469 kts 110°
2026-04-27 13:00 46.77613 21.15818 35245 ft 469 kts 110°
2026-04-27 13:00 46.75303 21.24706 35252 ft 469 kts 110°
2026-04-27 13:01 46.72995 21.33549 35249 ft 469 kts 110°
2026-04-27 13:01 46.70655 21.42435 35249 ft 470 kts 110°
2026-04-27 13:02 46.68126 21.51216 34631 ft 474 kts 119°
2026-04-27 13:02 46.66418 21.55370 33715 ft 481 kts 122°
2026-04-27 13:02 46.64670 21.59504 33159 ft 477 kts 122°
2026-04-27 13:03 46.62934 21.63596 32661 ft 472 kts 122°
2026-04-27 13:03 46.61219 21.67639 32189 ft 468 kts 122°
2026-04-27 13:03 46.59521 21.71657 31710 ft 464 kts 122°
2026-04-27 13:03 46.57839 21.75638 31236 ft 459 kts 122°
2026-04-27 13:04 46.56177 21.79577 30768 ft 455 kts 122°
2026-04-27 13:04 46.54528 21.83484 30309 ft 452 kts 122°
2026-04-27 13:04 46.52891 21.87353 29810 ft 447 kts 122°
2026-04-27 13:04 46.51290 21.91125 29371 ft 442 kts 122°
2026-04-27 13:05 46.49666 21.94949 28959 ft 437 kts 122°
2026-04-27 13:05 46.48101 21.98627 28541 ft 432 kts 122°
2026-04-27 13:05 46.46527 22.02322 28133 ft 429 kts 122°
2026-04-27 13:05 46.44966 22.05981 27736 ft 425 kts 122°
2026-04-27 13:06 46.43417 22.09614 27332 ft 422 kts 122°
2026-04-27 13:06 46.41873 22.13228 26940 ft 420 kts 122°
2026-04-27 13:06 46.40335 22.16814 26543 ft 418 kts 122°
2026-04-27 13:06 46.38803 22.20379 26153 ft 416 kts 123°
2026-04-27 13:07 46.37277 22.23931 25737 ft 415 kts 123°
2026-04-27 13:07 46.35755 22.27475 25330 ft 414 kts 123°
2026-04-27 13:07 46.34234 22.31017 24906 ft 413 kts 123°
2026-04-27 13:07 46.32718 22.34544 24481 ft 412 kts 123°
2026-04-27 13:08 46.31204 22.38060 24055 ft 412 kts 123°
2026-04-27 13:08 46.29689 22.41571 23583 ft 411 kts 123°
2026-04-27 13:08 46.28178 22.45066 23136 ft 408 kts 123°
2026-04-27 13:08 46.26676 22.48534 22689 ft 406 kts 123°
2026-04-27 13:09 46.25179 22.51982 22247 ft 403 kts 123°
2026-04-27 13:09 46.23715 22.55354 21801 ft 400 kts 123°
2026-04-27 13:09 46.22223 22.58784 21363 ft 397 kts 123°
2026-04-27 13:09 46.20759 22.62145 20929 ft 394 kts 123°
2026-04-27 13:10 46.19305 22.65483 20507 ft 392 kts 123°
2026-04-27 13:10 46.17879 22.68757 20082 ft 389 kts 123°
2026-04-27 13:10 46.16440 22.72054 19647 ft 387 kts 123°
2026-04-27 13:10 46.15007 22.75333 19219 ft 385 kts 123°
2026-04-27 13:11 46.13578 22.78593 18804 ft 383 kts 122°
2026-04-27 13:11 46.12215 22.81861 18513 ft 377 kts 120°
2026-04-27 13:11 46.10964 22.85175 17941 ft 378 kts 117°
2026-04-27 13:11 46.09767 22.88559 17394 ft 379 kts 116°
2026-04-27 13:12 46.08977 22.90849 17084 ft 377 kts 116°
2026-04-27 13:12 46.07828 22.94186 16642 ft 375 kts 116°
2026-04-27 13:12 46.06663 22.97533 16182 ft 373 kts 117°
2026-04-27 13:12 46.05491 23.00855 15732 ft 371 kts 117°
2026-04-27 13:13 46.04312 23.04155 15281 ft 370 kts 117°
2026-04-27 13:13 46.03130 23.07433 14833 ft 368 kts 117°
2026-04-27 13:13 46.01948 23.10694 14378 ft 367 kts 117°
2026-04-27 13:13 46.00768 23.13938 13934 ft 365 kts 118°
2026-04-27 13:14 45.99595 23.17163 13463 ft 362 kts 117°
2026-04-27 13:14 45.98434 23.20348 13073 ft 358 kts 118°
2026-04-27 13:14 45.97280 23.23510 12646 ft 355 kts 118°
2026-04-27 13:14 45.96137 23.26645 12168 ft 354 kts 118°
2026-04-27 13:15 45.95002 23.29761 11827 ft 350 kts 118°
2026-04-27 13:15 45.93875 23.32853 11424 ft 347 kts 118°
2026-04-27 13:15 45.92759 23.35918 10974 ft 346 kts 118°
2026-04-27 13:15 45.91663 23.38928 10837 ft 334 kts 118°
2026-04-27 13:16 45.90610 23.41809 10504 ft 320 kts 118°
2026-04-27 13:16 45.89586 23.44604 9979 ft 314 kts 118°
2026-04-27 13:16 45.88574 23.47361 9382 ft 309 kts 118°
2026-04-27 13:16 45.87582 23.50057 8874 ft 302 kts 119°
2026-04-27 13:17 45.86610 23.52688 8499 ft 297 kts 119°
2026-04-27 13:17 45.85643 23.55307 8130 ft 297 kts 118°
2026-04-27 13:17 45.84678 23.57927 7768 ft 297 kts 119°
2026-04-27 13:17 45.83721 23.60527 7534 ft 291 kts 119°
2026-04-27 13:18 45.82764 23.63120 7164 ft 294 kts 119°
2026-04-27 13:18 45.81814 23.65684 6924 ft 288 kts 120°
2026-04-27 13:18 45.80883 23.68184 6784 ft 280 kts 119°
2026-04-27 13:18 45.79993 23.70574 6663 ft 272 kts 120°
2026-04-27 13:19 45.79252 23.73041 6541 ft 268 kts 105°
2026-04-27 13:19 45.79040 23.75711 5999 ft 277 kts 90°
2026-04-27 13:19 45.79016 23.78506 5394 ft 280 kts 90°
2026-04-27 13:19 45.78986 23.81264 5083 ft 269 kts 90°
2026-04-27 13:20 45.78953 23.83861 5021 ft 255 kts 90°
2026-04-27 13:20 45.78921 23.86346 4817 ft 243 kts 91°
2026-04-27 13:20 45.78890 23.88716 4406 ft 232 kts 91°
2026-04-27 13:20 45.78859 23.90957 4074 ft 216 kts 90°
2026-04-27 13:21 45.78830 23.93037 3744 ft 203 kts 90°
2026-04-27 13:21 45.78804 23.94979 3416 ft 186 kts 90°
2026-04-27 13:21 45.78778 23.96723 3137 ft 165 kts 90°
2026-04-27 13:21 45.78754 23.98304 2886 ft 155 kts 91°
2026-04-27 13:22 45.78735 23.99814 2657 ft 150 kts 91°
2026-04-27 13:22 45.78712 24.01293 2440 ft 148 kts 91°
2026-04-27 13:22 45.78686 24.02763 2227 ft 148 kts 91°
2026-04-27 13:22 45.78650 24.04243 2008 ft 150 kts 92°
2026-04-27 13:23 45.78624 24.05728 1777 ft 151 kts 88°
2026-04-27 13:23 45.78604 24.07240 1532 ft 150 kts 89°
2026-04-27 13:23 45.78586 24.08535 1480 ft 107 kts 91°
2026-04-27 13:23 45.78572 24.09349 1468 ft 57 kts 91°
2026-04-27 13:24 45.78565 24.09696 1462 ft 13 kts 89°
2026-04-27 13:24 45.78594 24.09794 1459 ft 9 kts 22°
2026-04-27 13:24 45.78648 24.09798 1459 ft 8 kts
2026-04-27 13:24 45.78707 24.09803 1460 ft 8 kts
2026-04-27 13:25 45.78758 24.09804 1460 ft 8 kts 360°
2026-04-27 13:25 45.78790 24.09772 1460 ft 7 kts 290°
2026-04-27 13:25 45.78798 24.09691 1460 ft 9 kts 274°
2026-04-27 13:25 45.78800 24.09586 1460 ft 12 kts 271°
2026-04-27 13:26 45.78802 24.09456 1460 ft 14 kts 271°
2026-04-27 13:26 45.78804 24.09358 1460 ft 3 kts 273°
2026-04-27 13:26 45.78817 24.09342 1458 ft 2 kts 341°
2026-04-27 13:26 45.78835 24.09341 1460 ft 2 kts 358°
2026-04-27 13:27 45.78851 24.09343 1460 ft 1 kts 21°
2026-04-27 13:27 45.78855 24.09353 1460 ft 0 kts 51°
2026-04-27 13:27 45.78856 24.09353 1460 ft 0 kts 51°